Regional Weather Roundup
Issued by NWS

Home | Current Version | Previous Version | Text Only | Print | Product List | Glossary Off
Versions: 1 2 3 4 5 6 7 8 9 10 11 12 13 14 15 16 17 18 19 20 21 22 23 24 25 26 27 28 29 30 31 32 33 34 35 36 37 38 39 40 41 42 43 44 45 46 47 48 49 50

000
ASUS43 KTOP 251559
RWRKS

WEATHER ROUNDUP FOR KANSAS
NATIONAL WEATHER SERVICE GOODLAND KS
1100 AM CDT SAT APR 25 2015

NOTE:  "FAIR" INDICATES FEW OR NO CLOUDS BELOW 12,000 FEET WITH NO
SIGNIFICANT WEATHER AND/OR OBSTRUCTIONS TO VISIBILITY.

KSZ001>006-013>018-027>032-041>047-251700-
NORTHWEST KANSAS

CITY           SKY/WX    TMP DP  RH WIND       PRES   REMARKS
GOODLAND       SUNNY     59  45  59 N12       29.72R
HAYS           MOSUNNY   64  48  55 NW17      29.64R
HILL CITY      MOSUNNY   63  53  70 N16       29.66R
RUSSELL        SUNNY     66  52  60 NW18      29.61R
$$

KSZ061>065-074>080-084>089-251700-
SOUTHWEST KANSAS

CITY           SKY/WX    TMP DP  RH WIND       PRES   REMARKS
DODGE CITY     SUNNY     70  44  39 NW14      29.66S
ELKHART          N/A     70  37  29 NW5         N/A
GARDEN CITY    SUNNY     66  43  43 N18       29.67S
GREAT BEND     SUNNY     64  52  63 NW17G23   29.62S
LIBERAL        SUNNY     72  43  35 NW15      29.73R
$$

KSZ066>073-081>083-090>101-251700-
SOUTHEAST KANSAS

CITY           SKY/WX    TMP DP  RH WIND       PRES   REMARKS
CHANUTE        SUNNY     68  54  60 W17       29.54R
COFFEYVILLE    SUNNY     70  52  52 W17G28    29.57S
HUTCHINSON     SUNNY     69  52  54 NW14      29.60R
MEDICINE LODGE   N/A     71  49  45 N15G23    29.63R
NEWTON         MOSUNNY   63  50  63 NW20G28   29.60R
PARSONS        SUNNY     69  55  60 W14G21    29.57S
WICHITA INTL   MOSUNNY   69  52  54 W18       29.59R
WICHITA JABRA  SUNNY     68  51  54 W17G28    29.59R
WINFIELD       SUNNY     71  52  50 W14       29.60S
$$

KSZ007>012-019>026-033>040-048>060-102>105-251700-
NORTHEAST KANSAS

CITY           SKY/WX    TMP DP  RH WIND       PRES   REMARKS
CONCORDIA      CLOUDY    56  53  90 N12       29.61R
EMPORIA        MOSUNNY   63  54  72 W18G26    29.54R
LAWRENCE       CLOUDY    59  55  87 SW9       29.46R
MANHATTAN      CLOUDY    60  56  86 N13G20    29.54R
OLATHE IND     CLOUDY    59  55  87 SW16      29.48R
OLATHE EXE     CLOUDY    60  55  83 W8        29.47R
SALINA         PTSUNNY   63  53  70 NW21      29.59R
TOPEKA BILLARD CLOUDY    61  55  81 W13G22    29.46R
TOPEKA FORBES  CLOUDY    62  55  77 W20G26    29.46R
$$



USA.gov is the U.S. government's official web portal to all federal, state and local government web resources and services.